When you browse on this site, cookies collect data to enhance your experience and personalize the content and advertising you see.
Visit our Privacy Policy to learn more. By continuing to use the site, you agree to this use of cookies and data.
  • In Denmark
  • List of Countries
  • For 7 days
  • Water Temperature
  • Satellite Maps
  • Weather Map
  • Weather Widgets
  • user-avatar
    Login

    Hourly Weather Wiktoria

    Today, 18 January, Friday

    Time Temperature Precipitation Wind Pressure Humidity
    00:00 +30°C° 0 mm 5 mps 745 mmHg 45%
    01:00 +30°C° 0 mm 5 mps 745 mmHg 47%
    02:00 +29°C° 0.4 mm 5 mps 745 mmHg 51%
    03:00 +28°C° 0.4 mm 5 mps 744 mmHg 56%
    04:00 +28°C° 0 mm 5 mps 744 mmHg 54%
    05:00 +28°C° 0.1 mm 5 mps 744 mmHg 53%
    06:00 +29°C° 0.1 mm 5 mps 744 mmHg 53%
    07:00 +29°C° 0.1 mm 4 mps 744 mmHg 52%
    08:00 +30°C° 0 mm 5 mps 744 mmHg 47%
    09:00 +33°C° 0 mm 6 mps 744 mmHg 41%
    10:00 +35°C° 0 mm 7 mps 744 mmHg 36%
    11:00 +38°C° 0 mm 6 mps 744 mmHg 31%
    12:00 +40°C° 0 mm 5 mps 743 mmHg 26%
    13:00 +43°C° 0 mm 3 mps 743 mmHg 22%
    14:00 +43°C° 0 mm 5 mps 743 mmHg 22%
    15:00 +44°C° 0 mm 7 mps 743 mmHg 22%
    16:00 +44°C° 0 mm 9 mps 743 mmHg 22%
    17:00 +40°C° 0 mm 7 mps 744 mmHg 27%
    18:00 +37°C° 0 mm 5 mps 744 mmHg 33%
    19:00 +35°C° 0 mm 3 mps 745 mmHg 38%
    20:00 +32°C° 0 mm 4 mps 746 mmHg 48%
    21:00 +29°C° 0 mm 6 mps 746 mmHg 58%
    22:00 +26°C° 0 mm 7 mps 747 mmHg 67%
    23:00 +24°C° 0 mm 7 mps 748 mmHg 64%

    Tomorrow, 19 January, Saturday

    Time Temperature Precipitation Wind Pressure Humidity
    00:00 +23°C° 0 mm 8 mps 748 mmHg 60%
    01:00 +22°C° 0 mm 8 mps 749 mmHg 56%
    02:00 +21°C° 0 mm 7 mps 749 mmHg 60%
    03:00 +18°C° 0 mm 7 mps 749 mmHg 64%
    04:00 +17°C° 0 mm 6 mps 750 mmHg 68%
    05:00 +19°C° 0 mm 6 mps 750 mmHg 66%
    06:00 +19°C° 0 mm 6 mps 751 mmHg 65%
    07:00 +18°C° 0 mm 7 mps 751 mmHg 63%
    08:00 +21°C° 0 mm 7 mps 751 mmHg 53%
    09:00 +23°C° 0 mm 6 mps 752 mmHg 43%
    10:00 +26°C° 0 mm 6 mps 752 mmHg 34%
    11:00 +29°C° 0 mm 6 mps 751 mmHg 29%
    12:00 +32°C° 0 mm 6 mps 751 mmHg 25%
    13:00 +34°C° 0 mm 6 mps 751 mmHg 20%
    14:00 +34°C° 0 mm 7 mps 751 mmHg 21%
    15:00 +34°C° 0 mm 7 mps 750 mmHg 21%
    16:00 +34°C° 0 mm 8 mps 750 mmHg 22%
    17:00 +32°C° 0 mm 8 mps 750 mmHg 26%
    18:00 +29°C° 0 mm 7 mps 750 mmHg 29%
    19:00 +28°C° 0 mm 7 mps 750 mmHg 33%
    20:00 +26°C° 0 mm 7 mps 751 mmHg 37%
    21:00 +23°C° 0 mm 7 mps 751 mmHg 40%
    22:00 +21°C° 0 mm 7 mps 752 mmHg 44%
    23:00 +21°C° 0 mm 7 mps 752 mmHg 47%

    Day after tomorrow, 20 January, Sunday

    Time Temperature Precipitation Wind Pressure Humidity
    00:00 +20°C° 0 mm 6 mps 752 mmHg 51%
    01:00 +19°C° 0 mm 6 mps 752 mmHg 54%
    02:00 +17°C° 0 mm 5 mps 752 mmHg 57%
    03:00 +17°C° 0 mm 5 mps 752 mmHg 60%
    04:00 +16°C° 0 mm 5 mps 752 mmHg 64%
    05:00 +18°C° 0 mm 4 mps 752 mmHg 62%
    06:00 +19°C° 0 mm 4 mps 753 mmHg 60%
    07:00 +20°C° 0 mm 4 mps 753 mmHg 57%
    08:00 +24°C° 0 mm 3 mps 753 mmHg 52%
    09:00 +27°C° 0 mm 2 mps 753 mmHg 46%
    10:00 +29°C° 0 mm 2 mps 753 mmHg 41%
    11:00 +31°C° 0 mm 2 mps 752 mmHg 36%
    12:00 +35°C° 0 mm 2 mps 752 mmHg 31%
    13:00 +37°C° 0 mm 2 mps 751 mmHg 26%
    14:00 +37°C° 0 mm 2 mps 751 mmHg 24%
    15:00 +38°C° 0 mm 3 mps 750 mmHg 22%
    16:00 +38°C° 0 mm 3 mps 749 mmHg 20%
    17:00 +37°C° 0 mm 5 mps 749 mmHg 26%
    18:00 +35°C° 0 mm 6 mps 750 mmHg 31%
    19:00 +33°C° 0 mm 7 mps 750 mmHg 37%
    20:00 +30°C° 0 mm 7 mps 750 mmHg 43%
    21:00 +28°C° 0 mm 6 mps 751 mmHg 48%
    22:00 +26°C° 0 mm 6 mps 751 mmHg 54%
    23:00 +24°C° 0 mm 6 mps 751 mmHg 58%

    21 January, Monday

    Time Temperature Precipitation Wind Pressure Humidity
    00:00 +23°C° 0 mm 5 mps 750 mmHg 62%
    01:00 +22°C° 0 mm 4 mps 750 mmHg 66%
    02:00 +21°C° 0 mm 4 mps 750 mmHg 68%
    03:00 +21°C° 0 mm 4 mps 750 mmHg 69%
    04:00 +20°C° 0 mm 3 mps 750 mmHg 71%
    05:00 +22°C° 0 mm 3 mps 750 mmHg 65%
    06:00 +24°C° 0 mm 3 mps 750 mmHg 59%
    07:00 +25°C° 0 mm 3 mps 751 mmHg 53%
    08:00 +28°C° 0 mm 3 mps 750 mmHg 49%
    09:00 +30°C° 0 mm 3 mps 750 mmHg 46%
    10:00 +34°C° 0 mm 3 mps 750 mmHg 42%
    11:00 +36°C° 0 mm 3 mps 749 mmHg 38%
    12:00 +38°C° 0 mm 2 mps 748 mmHg 34%
    13:00 +39°C° 0 mm 2 mps 748 mmHg 29%
    14:00 +40°C° 0 mm 2 mps 747 mmHg 27%
    15:00 +41°C° 0 mm 1 mps 747 mmHg 25%
    16:00 +42°C° 0 mm 1 mps 746 mmHg 23%
    17:00 +40°C° 0 mm 1 mps 747 mmHg 24%
    18:00 +39°C° 0 mm 2 mps 747 mmHg 26%
    19:00 +38°C° 0 mm 3 mps 747 mmHg 28%
    20:00 +36°C° 0 mm 4 mps 747 mmHg 34%
    21:00 +34°C° 0 mm 5 mps 748 mmHg 40%
    22:00 +32°C° 0 mm 6 mps 748 mmHg 46%
    23:00 +30°C° 0 mm 6 mps 748 mmHg 48%

    22 January, Tuesday

    Time Temperature Precipitation Wind Pressure Humidity
    00:00 +29°C° 0 mm 5 mps 748 mmHg 51%
    01:00 +28°C° 0 mm 4 mps 748 mmHg 53%
    02:00 +27°C° 0 mm 4 mps 748 mmHg 56%
    03:00 +27°C° 0 mm 4 mps 748 mmHg 59%
    04:00 +26°C° 0 mm 3 mps 748 mmHg 61%
    05:00 +27°C° 0 mm 3 mps 748 mmHg 61%
    06:00 +28°C° 0 mm 3 mps 748 mmHg 61%
    07:00 +28°C° 0 mm 3 mps 748 mmHg 61%
    08:00 +32°C° 0 mm 4 mps 748 mmHg 54%
    09:00 +34°C° 0 mm 4 mps 748 mmHg 48%
    10:00 +37°C° 0 mm 4 mps 748 mmHg 42%
    11:00 +39°C° 0 mm 3 mps 747 mmHg 36%
    12:00 +41°C° 0 mm 2 mps 746 mmHg 31%
    13:00 +43°C° 0 mm 1 mps 746 mmHg 26%
    14:00 +43°C° 0 mm 1 mps 745 mmHg 24%
    15:00 +42°C° 0 mm 2 mps 745 mmHg 23%
    16:00 +42°C° 0 mm 2 mps 744 mmHg 21%
    17:00 +42°C° 0 mm 3 mps 745 mmHg 22%
    18:00 +42°C° 0 mm 3 mps 745 mmHg 22%
    19:00 +41°C° 0 mm 4 mps 745 mmHg 22%
    20:00 +37°C° 0 mm 5 mps 746 mmHg 24%
    21:00 +35°C° 0 mm 7 mps 746 mmHg 26%
    22:00 +32°C° 0 mm 8 mps 747 mmHg 28%
    23:00 +31°C° 0 mm 8 mps 747 mmHg 30%

    23 January, Wednesday

    Time Temperature Precipitation Wind Pressure Humidity
    00:00 +29°C° 0 mm 7 mps 747 mmHg 31%
    01:00 +27°C° 0 mm 6 mps 746 mmHg 33%
    02:00 +26°C° 0 mm 5 mps 746 mmHg 37%
    03:00 +25°C° 0 mm 4 mps 746 mmHg 41%
    04:00 +24°C° 0 mm 3 mps 746 mmHg 45%
    05:00 +23°C° 0 mm 4 mps 747 mmHg 44%
    06:00 +23°C° 0 mm 5 mps 747 mmHg 43%
    07:00 +23°C° 0 mm 6 mps 747 mmHg 42%
    08:00 +28°C° 0 mm 5 mps 747 mmHg 34%
    09:00 +33°C° 0 mm 4 mps 747 mmHg 26%
    10:00 +36°C° 0 mm 4 mps 747 mmHg 18%
    11:00 +38°C° 0 mm 4 mps 747 mmHg 16%
    12:00 +41°C° 0 mm 4 mps 746 mmHg 14%
    13:00 +43°C° 0 mm 4 mps 746 mmHg 12%
    14:00 +42°C° 0 mm 5 mps 745 mmHg 14%
    15:00 +43°C° 0 mm 7 mps 745 mmHg 16%
    16:00 +41°C° 0 mm 8 mps 745 mmHg 18%
    17:00 +39°C° 0 mm 8 mps 745 mmHg 23%
    18:00 +35°C° 0 mm 8 mps 745 mmHg 28%
    19:00 +33°C° 0 mm 8 mps 745 mmHg 33%
    20:00 +30°C° 0 mm 7 mps 746 mmHg 38%
    21:00 +28°C° 0 mm 7 mps 747 mmHg 44%
    22:00 +26°C° 0 mm 6 mps 747 mmHg 50%
    23:00 +24°C° 0 mm 6 mps 747 mmHg 54%
    Show more